星链-4701 (STARLINK-4701 )

导读 | 星芒AI

STARLINK-4701 是 SpaceX Starlink 项目中的一颗低轨通信卫星,属于第四批发射的星链卫星群。该卫星于2023年发射,运行在约550公里高度的近地轨道,旨在为全球用户提供高速互联网服务。它采用先进的星载相控阵天线和激光通信技术,支持与其他星链卫星的高速数据传输,提升网络稳定性和覆盖范围。作为星链星座的一部分,STARLINK-4701 有助于扩大 SpaceX 在全球宽带市场的影响力,特别是在偏远和网络基础设施薄弱的地区。

基本信息
目录编号:
53727
目录名称:
STARLINK-4701
国际标识:
2022-107AD
轨道中心:
EARTH
卫星名称:
星链-4701
卫星全名:
星链-4701 (STARLINK-4701 )
卫星状态:
在轨 (已飞行1203 天)
发射日期:
2022-09-05 UTC
国别 :
美国 (US)
星等 :
--
轨道信息
数据来源 国际轨道数据 AOE轨道数据
星历时间 2025-12-21T11:05:16+0800
5小时前
查看轨道信息
2025-12-20T14:00:00+0800
1天前
查看轨道信息
半长轴 6917.869km 6917.883km
偏心率 0.0001547 0.0001579
轨道倾角 53.216° 53.216°
近地点辐角 94.084° 53.183°
升交点赤经 246.788° 250.732°
平近点角 266.033° 211.599°
近地点 538.661km 538.653km
远地点 540.803km 540.839km
周期 95.437分钟 95.438分钟
每日圈数 15.08844 15.088393
详细信息
固有亮度:
5
最大亮度:
2.5
卫星平台:
Starlink v1.5
覆盖范围:
全球
运营商:
太空探索技术公司
运营商所在国:
美国
制造商(研发单位):
太空探索技术公司
制造商所在国:
美国
使用方式:
暂无
卫星简介
星链(Starlink)计划是由太空探索技术公司(SpaceX)提出的一个巨型低轨卫星互联网星座项目,计划在2019年至2024年间在太空搭建由约1.2万颗卫星组成的“星链”网络,其中1584颗将部署在地球上空550千米处的近地轨道,并从2020年开始工作。该卫星仍在工作。
2D轨道图
3D轨道图
轨道高度分析图
轨道倾角分析图
轨道综合分析图
查看轨道综合分析图